| time (UTC) | temp F | wind direction | speed knots | gust knots | rain 1hr in | rain 24hr in | rain mn in | humidity % | barometer mb |
| 20260906114627 | 86 | 277 | 2.6 | 11.3 | 0.00 | 0.00 | 0.00 | 50 | 1026.4 |
| 20260906113100 | 86 | 130 | 4.3 | 9.6 | 0.00 | 0.00 | 0.00 | 50 | 1026.5 |
| 20260906111624 | 86 | 200 | 2.6 | 8.7 | 0.00 | 0.00 | 0.00 | 50 | 1026.5 |
| 20260906104603 | 85 | 140 | 1.7 | 10.4 | 0.00 | 0.00 | 0.00 | 49 | 1026.6 |
| 20260906103101 | 85 | 152 | 2.6 | 7.8 | 0.00 | 0.00 | 0.00 | 49 | 1026.7 |
| 20260906101554 | 84 | 123 | 2.6 | 8.7 | 0.00 | 0.00 | 0.00 | 50 | 1026.9 |
| 20260906100100 | 84 | 130 | 1.7 | 8.7 | 0.00 | 0.00 | 0.00 | 49 | 1026.9 |
| 20260906094555 | 83 | 196 | 3.5 | 8.7 | 0.00 | 0.00 | 0.00 | 49 | 1026.9 |
| 20260906093109 | 84 | 160 | 0.9 | 6.1 | 0.00 | 0.00 | 0.00 | 53 | 1026.9 |
| 20260906091604 | 83 | 115 | 0.9 | 2.6 | 0.00 | 0.00 | 0.00 | 54 | 1027.0 |
| 20260906090115 | 81 | 111 | 0.9 | 4.3 | 0.00 | 0.00 | 0.00 | 56 | 1026.9 |
| 20260906084608 | 80 | 117 | 0.0 | 5.2 | 0.00 | 0.00 | 0.00 | 58 | 1026.9 |
| 20260906083054 | 79 | 144 | 0.9 | 4.3 | 0.00 | 0.00 | 0.00 | 60 | 1026.9 |
| 20260906081607 | 79 | 114 | 0.9 | 3.5 | 0.00 | 0.00 | 0.00 | 62 | 1026.9 |
| 20260906080056 | 77 | 137 | 0.9 | 5.2 | 0.00 | 0.00 | 0.00 | 63 | 1026.8 |
| 20260906074611 | 77 | 113 | 0.9 | 4.3 | 0.00 | 0.00 | 0.00 | 64 | 1026.7 |
| 20260906073109 | 76 | 154 | 1.7 | 4.3 | 0.00 | 0.00 | 0.00 | 66 | 1026.6 |
| 20260906071554 | 76 | 152 | 0.9 | 4.3 | 0.00 | 0.00 | 0.00 | 66 | 1026.4 |
| 20260906070134 | 74 | 0 | 0.0 | 3.5 | 0.00 | 0.00 | 0.00 | 67 | 1026.2 |
| 20260906064559 | 73 | 0 | 0.0 | 1.7 | 0.00 | 0.00 | 0.00 | 69 | 1026.1 |
| 20260906063056 | 72 | 0 | 0.0 | 1.7 | 0.00 | 0.00 | 0.00 | 71 | 1026.1 |
| 20260906061620 | 71 | 0 | 0.0 | 0.9 | 0.00 | 0.00 | 0.00 | 72 | 1026.0 |
| 20260906060104 | 70 | 0 | 0.0 | 0.9 | 0.00 | 0.00 | 0.00 | 73 | 1025.8 |
| 20260906054600 | 70 | 0 | 0.0 | 1.7 | 0.00 | 0.00 | 0.00 | 72 | 1025.7 |
| 20260906053101 | 70 | 0 | 0.0 | 0.9 | 0.00 | 0.00 | 0.00 | 71 | 1025.6 |
| 20260906051558 | 70 | 0 | 0.0 | 1.7 | 0.00 | 0.00 | 0.00 | 70 | 1025.5 |
| 20260906050115 | 70 | 0 | 0.0 | 3.5 | 0.00 | 0.00 | 0.00 | 70 | 1025.5 |
| 20260906044556 | 69 | 360 | 0.9 | 2.6 | 0.00 | 0.00 | 0.00 | 70 | 1025.5 |
| 20260906043111 | 69 | 0 | 0.0 | 0.9 | 0.00 | 0.00 | 0.00 | 71 | 1025.3 |
| 20260906041600 | 69 | 0 | 0.0 | 0.9 | 0.00 | 0.00 | 0.00 | 71 | 1025.2 |
| 20260906040116 | 70 | 0 | 0.0 | 0.0 | 0.00 | 0.00 | 0.00 | 70 | 1025.1 |
| 20260906034601 | 70 | 0 | 0.0 | 0.9 | 0.00 | 0.00 | 0.00 | 70 | 1025.0 |
| 20260906033102 | 70 | 355 | 0.0 | 2.6 | 0.00 | 0.00 | 0.00 | 69 | 1024.8 |
| 20260906031611 | 70 | 0 | 0.0 | 0.9 | 0.00 | 0.00 | 0.00 | 69 | 1024.7 |
| 20260906030110 | 70 | 0 | 0.0 | 0.9 | 0.00 | 0.00 | 0.00 | 69 | 1024.6 |
| 20260906024554 | 71 | 0 | 0.0 | 0.9 | 0.00 | 0.00 | 0.00 | 69 | 1024.7 |
| 20260906023131 | 71 | 0 | 0.0 | 0.9 | 0.00 | 0.00 | 0.00 | 68 | 1024.7 |
| 20260906021600 | 71 | 0 | 0.0 | 0.9 | 0.00 | 0.00 | 0.00 | 69 | 1024.8 |
| 20260906020108 | 71 | 0 | 0.0 | 0.9 | 0.00 | 0.00 | 0.00 | 69 | 1024.6 |
| 20260906014626 | 71 | 0 | 0.0 | 1.7 | 0.00 | 0.00 | 0.00 | 69 | 1024.6 |
| 20260906013104 | 71 | 0 | 0.0 | 0.0 | 0.00 | 0.00 | 0.00 | 70 | 1024.5 |
| 20260906011603 | 71 | 0 | 0.0 | 0.0 | 0.00 | 0.00 | 0.00 | 70 | 1024.5 |
| 20260906004607 | 71 | 355 | 0.0 | 1.7 | 0.00 | 0.00 | 0.00 | 70 | 1024.4 |
| 20260906003104 | 71 | 355 | 0.0 | 0.9 | 0.00 | 0.00 | 0.00 | 71 | 1024.4 |
| 20260906001600 | 71 | 0 | 0.0 | 1.7 | 0.00 | 0.00 | 0.00 | 69 | 1024.5 |
| 20260906000107 | 71 | 0 | 0.0 | 0.0 | 0.00 | 0.00 | 0.00 | 72 | 1024.6 |
| 20260905234605 | 71 | 0 | 0.0 | 0.0 | 0.00 | 0.00 | 0.00 | 72 | 1024.5 |
| 20260905233104 | 71 | 0 | 0.0 | 0.0 | 0.00 | 0.00 | 0.00 | 72 | 1024.5 |
| 20260905231559 | 71 | 0 | 0.0 | 0.9 | 0.00 | 0.00 | 0.00 | 71 | 1024.5 |
| 20260905230109 | 71 | 0 | 0.0 | 1.7 | 0.00 | 0.00 | 0.00 | 71 | 1024.5 |
| 20260905224608 | 71 | 0 | 0.0 | 0.9 | 0.00 | 0.00 | 0.00 | 70 | 1024.5 |
| 20260905223100 | 71 | 0 | 0.0 | 2.6 | 0.00 | 0.00 | 0.00 | 71 | 1024.4 |
| 20260905221556 | 71 | 346 | 1.7 | 3.5 | 0.00 | 0.00 | 0.00 | 71 | 1024.4 |
| 20260905220121 | 71 | 0 | 0.0 | 0.9 | 0.00 | 0.00 | 0.00 | 71 | 1024.3 |
| 20260905214600 | 72 | 0 | 0.0 | 0.0 | 0.00 | 0.00 | 0.00 | 73 | 1024.2 |
| 20260905213104 | 72 | 0 | 0.0 | 0.9 | 0.00 | 0.00 | 0.00 | 73 | 1024.1 |
| 20260905211554 | 72 | 0 | 0.0 | 1.7 | 0.00 | 0.00 | 0.00 | 74 | 1024.0 |
| 20260905210104 | 72 | 350 | 0.0 | 1.7 | 0.00 | 0.00 | 0.00 | 73 | 1024.0 |
| 20260905204600 | 73 | 350 | 0.9 | 3.5 | 0.00 | 0.00 | 0.00 | 72 | 1024.0 |
| 20260905203107 | 73 | 355 | 0.0 | 1.7 | 0.00 | 0.00 | 0.00 | 71 | 1023.9 |
| 20260905201603 | 74 | 336 | 0.9 | 2.6 | 0.00 | 0.00 | 0.00 | 71 | 1023.9 |
| 20260905194558 | 74 | 319 | 0.9 | 3.5 | 0.00 | 0.00 | 0.00 | 71 | 1023.8 |
| 20260905193104 | 75 | 319 | 1.7 | 3.5 | 0.00 | 0.00 | 0.00 | 70 | 1023.7 |
| 20260905191604 | 75 | 335 | 0.9 | 4.3 | 0.00 | 0.00 | 0.00 | 69 | 1023.5 |
| 20260905190113 | 75 | 355 | 1.7 | 3.5 | 0.00 | 0.00 | 0.00 | 69 | 1023.2 |
| 20260905184604 | 76 | 336 | 1.7 | 5.2 | 0.00 | 0.00 | 0.00 | 68 | 1023.1 |
| 20260905183125 | 76 | 328 | 1.7 | 4.3 | 0.00 | 0.00 | 0.00 | 68 | 1023.1 |
| 20260905181605 | 76 | 336 | 2.6 | 5.2 | 0.00 | 0.00 | 0.00 | 67 | 1022.9 |
| 20260905174555 | 77 | 336 | 3.5 | 5.2 | 0.00 | 0.00 | 0.00 | 66 | 1022.7 |
| 20260905173103 | 78 | 360 | 2.6 | 5.2 | 0.00 | 0.00 | 0.00 | 65 | 1022.6 |
| 20260905171605 | 79 | 327 | 2.6 | 5.2 | 0.00 | 0.00 | 0.00 | 64 | 1022.5 |
| 20260905164604 | 82 | 5 | 0.9 | 2.6 | 0.00 | 0.00 | 0.00 | 58 | 1022.4 |
| 20260905163055 | 84 | 5 | 0.9 | 2.6 | 0.00 | 0.00 | 0.00 | 56 | 1022.4 |
| 20260905161601 | 84 | 0 | 0.0 | 1.7 | 0.00 | 0.00 | 0.00 | 55 | 1022.3 |
| 20260905160122 | 85 | 343 | 0.9 | 5.2 | 0.00 | 0.00 | 0.00 | 54 | 1022.3 |
| 20260905154556 | 87 | 126 | 0.0 | 2.6 | 0.00 | 0.00 | 0.00 | 51 | 1022.3 |
| 20260905153101 | 87 | 66 | 0.9 | 2.6 | 0.00 | 0.00 | 0.00 | 51 | 1022.1 |
| 20260905151609 | 87 | 0 | 1.7 | 7.0 | 0.00 | 0.00 | 0.00 | 51 | 1022.1 |
| 20260905150057 | 88 | 67 | 2.6 | 7.0 | 0.00 | 0.00 | 0.00 | 49 | 1022.1 |
| 20260905144555 | 88 | 115 | 0.0 | 6.1 | 0.00 | 0.00 | 0.00 | 47 | 1022.1 |
| 20260905143100 | 88 | 110 | 0.9 | 6.1 | 0.00 | 0.00 | 0.00 | 46 | 1022.2 |
| 20260905141601 | 88 | 114 | 1.7 | 7.8 | 0.00 | 0.00 | 0.00 | 47 | 1022.2 |
| 20260905140108 | 88 | 103 | 2.6 | 6.1 | 0.00 | 0.00 | 0.00 | 47 | 1022.2 |
| 20260905134554 | 88 | 89 | 1.7 | 7.8 | 0.00 | 0.00 | 0.00 | 46 | 1022.4 |
| 20260905133102 | 88 | 0 | 1.7 | 7.8 | 0.00 | 0.00 | 0.00 | 43 | 1022.6 |
| 20260905131608 | 88 | 129 | 3.5 | 8.7 | 0.00 | 0.00 | 0.00 | 43 | 1022.6 |
| 20260905130110 | 88 | 120 | 2.6 | 7.8 | 0.00 | 0.00 | 0.00 | 45 | 1022.7 |
| 20260905124603 | 88 | 139 | 2.6 | 7.8 | 0.00 | 0.00 | 0.00 | 45 | 1022.7 |
| 20260905123102 | 88 | 131 | 2.6 | 7.8 | 0.00 | 0.00 | 0.00 | 44 | 1022.7 |
| 20260905121603 | 88 | 134 | 0.9 | 4.3 | 0.00 | 0.00 | 0.00 | 42 | 1022.7 |
| 20260905120113 | 87 | 19 | 3.5 | 8.7 | 0.00 | 0.00 | 0.00 | 41 | 1022.7 |